Regional Weather Roundup
Issued by NWS

Home | Current Version | Previous Version | Text Only | Print | Product List | Glossary Off
Versions: 1 2 3 4 5 6 7 8 9 10 11 12 13 14 15 16 17 18 19 20 21 22 23 24 25 26 27 28 29 30 31 32 33 34 35 36 37 38 39 40 41 42 43 44 45 46 47 48 49 50

000
ASUS43 KFSD 311902
RWRSD

WEATHER ROUNDUP FOR SOUTH DAKOTA
NATIONAL WEATHER SERVICE SIOUX FALLS SD
100 PM CST SAT JAN 31 2015

NOTE: "FAIR" INDICATES FEW OR NO CLOUDS BELOW 12,000 FEET WITH NO
SIGNIFICANT WEATHER AND/OR OBSTRUCTIONS TO VISIBILITY.


SDZ001>005-009-010-012>017-312000-
NORTHWEST AND NORTH CENTRAL SOUTH DAKOTA

CITY           SKY/WX    TMP DP  RH WIND       PRES   REMARKS
BUFFALO          N/A     22  20  92 E15       29.97R WCI   9
FAITH            N/A     23  19  85 E15       30.09F WCI  10
MOBRIDGE       CLOUDY    20  14  77 NE13      30.19S WCI   7
$$

SDZ012>016-024>037-041>051-057-063-072>074-312000-
SOUTHWEST AND SOUTH CENTRAL SOUTH DAKOTA

CITY           SKY/WX    TMP DP  RH WIND       PRES   REMARKS
RAPID CTY ARPT FOG       26  25  96 E10       29.99F VSB 1/4 WCI  16
PIERRE         CLOUDY    21  19  92 E20       30.11F WCI   6
CUSTER         CLOUDY    29  20  69 NE5       29.87F WCI  24
ELLSWORTH AFB  FRZ DRZL  26  25  97 E12       29.99  VSB<1/4 WCI  15
PHILIP         FOG       23  22  96 NE16      30.07F VSB 1/2 WCI  10
PINE RIDGE     CLOUDY    31  25  78 E12       29.95F WCI  22
WINNER         FRZ RAIN  26  24  92 NE14      30.05F VSB<1/4 WCI  14
$$

SDZ004>011-016>023-039-040-312000-
NORTHEAST SOUTH DAKOTA

CITY           SKY/WX    TMP DP  RH WIND       PRES   REMARKS
ABERDEEN       PTSUNNY   17   3  54 NE18      30.25F WCI   1
WATERTOWN      CLOUDY    17  14  88 NE16      30.15F WCI   2
SISSETON         N/A     17   7  64 NE17      30.25F WCI   1
$$

SDZ017-020-022-023-036>040-048>070-312000-
SOUTHEAST SOUTH DAKOTA

CITY           SKY/WX    TMP DP  RH WIND       PRES   REMARKS
SIOUX FALLS    CLOUDY    26  24  92 NE16      30.10F WCI  14
HURON          CLOUDY    22  17  81 NE17      30.16F WCI   8
MITCHELL       CLOUDY    25  22  88 NE16      30.12F FOG     WCI  12
YANKTON        CLOUDY    28  27  93 NE14      30.07F WCI  17
$$

ABBREVIATIONS USED IN REMARKS
   TC - TEMPERATURE IN CELSIUS
  WCI - WIND CHILL INDEX
   HX - HEAT INDEX
  VSB - VISIBILITY




USA.gov is the U.S. government's official web portal to all federal, state and local government web resources and services.